This is the latest recevied weather packets stored in our database for station/object N3WPH. If no packets are shown the sender has not sent any weather packets the latest 10 day(s).
| Time | Temp. | Humidity | Pressure | Rain* | Wind** | Luminosity | Snow |
|---|---|---|---|---|---|---|---|
| 1778005178 | 26.11° C | 37% | 1007.4 hPa | 0 mm | - | 263 W/m² | - |
| 1778004876 | 26.67° C | 36% | 1007.5 hPa | 0 mm | - | 725 W/m² | - |
| 1778004573 | 26.67° C | 35% | 1007.7 hPa | 0 mm | - | 786 W/m² | - |
| 1778004269 | 26.67° C | 33% | 1007.7 hPa | 0 mm | - | 786 W/m² | - |
| 1778003966 | 26.67° C | 34% | 1007.6 hPa | 0 mm | - | 608 W/m² | - |
| 1778003662 | 26.67° C | 38% | 1007.6 hPa | 0 mm | - | 798 W/m² | - |
| 1778003358 | 26.11° C | 38% | 1007.8 hPa | 0 mm | - | 716 W/m² | - |
| 1778003056 | 26.67° C | 40% | 1007.8 hPa | 0 mm | - | 178 W/m² | - |
| 1778002752 | 26.11° C | 40% | 1007.8 hPa | 0 mm | - | 811 W/m² | - |
| 1778002448 | 25.56° C | 41% | 1007.7 hPa | 0 mm | - | 517 W/m² | - |
| 1778002146 | 26.11° C | 45% | 1007.8 hPa | 0 mm | - | 574 W/m² | - |
| 1778001844 | 26.11° C | 43% | 1007.8 hPa | 0 mm | - | 861 W/m² | - |
| 1778001543 | 25.56° C | 41% | 1007.7 hPa | 0 mm | - | 734 W/m² | - |
| 1778001240 | 25.56° C | 42% | 1007.9 hPa | 0 mm | - | 574 W/m² | - |
| 1778000937 | 25.56° C | 42% | 1007.6 hPa | 0 mm | - | 658 W/m² | - |
| 1778000634 | 25.56° C | 42% | 1007.9 hPa | 0 mm | - | 788 W/m² | - |
| 1778000329 | 25.56° C | 40% | 1008.1 hPa | 0 mm | - | 683 W/m² | - |
| 1778000025 | 25.56° C | 43% | 1008.2 hPa | 0 mm | - | 788 W/m² | - |
| 1777999720 | 25.56° C | 41% | 1008.1 hPa | 0 mm | - | 677 W/m² | - |
| 1777999417 | 25.56° C | 41% | 1008.3 hPa | 0 mm | - | 729 W/m² | - |
| 1777999116 | 25.56° C | 44% | 1008.6 hPa | 0 mm | - | 788 W/m² | - |
| 1777998814 | 25.56° C | 42% | 1008.6 hPa | 0 mm | - | 733 W/m² | - |
| 1777998513 | 25.56° C | 43% | 1008.5 hPa | 0 mm | - | 769 W/m² | - |
| 1777998208 | 25° C | 41% | 1008.5 hPa | 0 mm | - | 769 W/m² | - |
| 1777997905 | 25° C | 42% | 1008.6 hPa | 0 mm | - | 423 W/m² | - |
* Rain latest hour (hover to see other rain measurements)
** Current wind speed in m/s (hover to see current wind gust speed)